This demonstration page uses our WeatherBlox Daily Observations layout. Learn more.

Left ArrowRight Arrow

Hourly Observations for July 27, 2016

Temp ( °F °C ) Dew Point ( °F °C ) Humidity (%) Winds ( mph kmh ) Pressure ( in mb ) Visibility ( mi km ) Precip ( " mm )
12:53 am 00:53 Clear 80 26.7 71 21.7 74 74 SW 6 9 30.03 1017 10 16 0.00 0.00
1:53 am 01:53 Mostly Clear 79 26.1 71 21.7 77 77 SSW 6 9 30.02 1017 10 16 0.00 0.00
2:53 am 02:53 Clear 78 25.6 71 21.7 79 79 SW 6 9 30.01 1016 10 16 0.00 0.00
3:53 am 03:53 Clear 77 25 71 21.7 82 82 SW 5 7 29.99 1016 10 16 0.00 0.00
4:24 am 04:24 Mostly Cloudy 77 25 72 22 83 83 SSW 5 7 30.00 1016 10 16 0.00 0.00
4:53 am 04:53 Cloudy 76 24.4 71 21.7 85 85 SSW 9 15 29.99 1016 10 16 0.00 0.00
5:39 am 05:39 Cloudy 76 24.4 71 21.7 85 85 WSW 5 7 30.00 1016 10 16 0.00 0.00
5:53 am 05:53 Cloudy 76 24.4 71 21.7 85 85 W 6 9 30.01 1016 10 16 0.00 0.00
6:53 am 06:53 Cloudy 76 24.4 71 21.7 85 85 WSW 6 9 30.03 1017 10 16 0.00 0.00
7:53 am 07:53 Cloudy 76 24.4 71 21.7 85 85 SW 3 6 30.04 1017 10 16 0.00 0.00
8:20 am 08:20 Partly Cloudy 79 26 72 22 79 79 W 3 6 30.06 1018 10 16 0.00 0.00
8:43 am 08:43 Mostly Cloudy 78 25.6 71 21.7 79 79 SSW 5 7 30.06 1018 10 16 0.00 0.00
8:53 am 08:53 Cloudy 78 25.6 70 21.1 76 76 W 3 6 30.06 1018 10 16 0.00 0.00
9:53 am 09:53 Cloudy 78 25.6 70 21.1 76 76 WSW 3 6 30.06 1018 10 16 0.00 0.00
10:53 am 10:53 Mostly Sunny 79 26.1 70 21.1 74 74 undefined N/A 30.06 1018 N/A 0.00 0.00
11:53 am 11:53 Mostly Sunny N/A N/A N/A undefined N/A N/A N/A 0.00 0.00
12:53 pm 12:53 Mostly Sunny N/A N/A N/A undefined N/A N/A N/A 0.00 0.00
1:53 pm 13:53 Mostly Sunny N/A N/A N/A undefined N/A N/A N/A 0.00 0.00
2:53 pm 14:53 Mostly Sunny N/A N/A N/A undefined N/A N/A N/A 0.00 0.00
3:53 pm 15:53 Mostly Sunny N/A N/A N/A undefined N/A N/A N/A 0.00 0.00
4:53 pm 16:53 Mostly Sunny 91 32.8 69 20.6 49 49 SW 10 17 29.98 1015 10 16 0.00 0.00
5:53 pm 17:53 Sunny 91 32.8 67 19.4 45 45 WSW 12 19 29.97 1015 10 16 0.00 0.00
6:53 pm 18:53 Sunny 90 32.2 67 19.4 47 47 SSW 9 15 29.96 1015 10 16 0.00 0.00
7:53 pm 19:53 Mostly Sunny 88 31.1 68 20 52 52 WSW 9 15 29.97 1015 10 16 0.00 0.00
8:53 pm 20:53 Cloudy 87 30.6 67 19.4 51 51 SW 10 17 29.97 1015 10 16 0.00 0.00
9:53 pm 21:53 Mostly Cloudy 84 28.9 68 20 59 59 WSW 5 7 29.98 1015 10 16 0.00 0.00
10:53 pm 22:53 Cloudy 83 28.3 65 18.3 55 55 SW 7 11 30.01 1016 10 16 0.00 0.00
11:53 pm 23:53 Clear 81 27.2 65 18.3 58 58 WSW 5 7 30.00 1016 10 16 0.00 0.00

Powered by AerisWeather